EHI
3 1 0 0 0 0 1 1 2 3 3 3 3 3 3 3 3 3 4 8 11 12 11 8 5 4 4 3 3 2 1 0 0 0 0 0 0 0 0 0 0 0 0
3 2 0 0 0 0 1 2 2 3 3 2 3 3 3 3 3 3 3 5 9 10 9 7 5 4 3 2 1 1 1 0 0 0 0 0 0 0 0 0 0 0 0
3 2 1 0 0 0 1 1 2 3 2 1 2 3 3 3 3 3 2 2 4 5 6 6 5 3 2 1 0 0 0 0 0 0 0 0 0 0 0 0 0 0 0
3 3 2 1 0 0 0 0 1 2 2 2 2 3 3 3 3 2 1 1 1 2 4 6 5 4 3 2 1 0 0 0 0 0 0 0 0 0 0 0 0 0 0
5 4 2 1 1 1 0 0 0 1 2 3 3 3 3 3 2 1 1 1 2 3 4 5 5 5 4 3 1 1 1 1 0 0 0 0 0 0 0 0 0 0 0
7 4 2 1 2 1 0 0 0 0 1 3 4 3 3 2 1 0 1 2 2 3 3 4 4 3 3 2 2 2 1 1 1 1 1 1 1 1 0 0 0 0 0
7 5 2 1 1 1 0 0 0 0 1 3 3 2 2 1 1 0 0 1 1 2 3 3 3 2 1 2 2 3 3 4 4 4 3 3 3 2 1 0 0 0 0
6 5 3 1 0 0 0 0 0 1 2 2 1 1 0 0 0 0 0 0 0 1 2 3 3 2 1 1 1 3 5 6 6 7 7 6 5 3 2 1 1 1 0
4 4 3 2 0 0 0 0 1 2 2 1 0 0 0 0 0 0 0 0 0 0 1 2 3 3 2 1 1 2 4 6 6 7 8 7 6 5 5 4 3 2 1
3 2 3 2 1 0 0 0 1 1 1 0 0 0 0 0 0 0 0 0 0 0 0 1 2 3 3 3 2 3 3 4 5 6 7 8 7 6 6 5 3 3 3
3 2 2 2 1 1 2 2 1 0 0 0 0 0 0 0 0 0 0 0 0 0 0 0 1 1 2 3 3 4 4 3 2 4 6 7 7 6 6 5 3 2 2
5 4 2 1 2 3 4 3 1 0 0 0 0 0 0 0 0 0 0 0 0 0 0 0 0 0 1 1 2 3 4 3 1 2 3 4 5 5 4 3 2 1 1
6 6 3 2 4 5 5 3 1 1 1 1 1 1 0 0 0 0 0 0 0 0 0 0 0 0 0 0 1 2 3 3 1 1 1 1 2 3 3 2 1 0 0
6 6 5 5 5 5 4 3 2 2 2 2 2 1 0 0 0 0 0 0 0 0 0 0 0 0 0 0 0 1 2 1 1 0 0 0 0 1 2 1 0 0 0
7 7 7 7 7 5 3 2 1 1 1 1 1 1 0 0 0 0 0 0 0 0 0 0 0 0 0 0 0 0 1 1 0 0 0 0 0 0 1 1 0 0 0
8 9 9 9 7 4 2 1 1 1 1 1 0 0 1 1 0 0 0 0 0 0 0 0 0 0 0 0 0 0 0 0 0 0 0 0 0 0 0 0 0 0 0
9 10 11 10 7 5 3 2 2 2 2 2 1 1 2 2 1 0 0 0 0 0 0 0 0 0 0 0 0 0 0 0 0 0 0 0 0 0 0 0 0 0 0
9 10 12 11 7 5 4 3 1 1 2 3 3 3 3 3 1 1 0 0 0 0 0 0 0 0 0 0 0 0 0 0 0 0 0 0 0 0 0 0 0 0 0
9 10 11 9 6 5 5 3 1 0 2 4 5 5 4 3 3 2 1 0 0 0 0 0 0 0 0 0 0 0 0 0 0 0 0 0 0 0 0 0 0 0 0
11 11 10 7 4 3 3 2 1 1 3 5 5 4 3 3 3 3 2 1 1 1 0 0 0 0 0 0 0 0 0 0 0 0 0 0 0 0 0 0 0 0 0
13 12 10 7 3 2 1 2 2 2 4 5 4 3 3 3 3 3 2 2 2 2 1 0 0 0 0 0 0 0 0 0 0 0 0 0 0 0 0 0 0 0 0
14 13 10 7 5 3 1 1 2 3 4 4 3 3 3 3 3 3 2 1 1 1 1 0 0 0 0 0 0 0 0 0 0 0 0 0 0 0 0 0 0 0 0
18 15 10 8 7 5 2 0 1 3 3 3 3 3 3 3 3 3 2 1 0 0 0 0 0 0 0 0 0 0 0 0 0 0 0 0 0 0 0 0 0 0 0
19 15 11 9 9 7 4 1 1 2 2 3 3 3 3 2 2 2 2 1 0 0 0 0 0 0 0 0 0 0 0 0 0 0 0 0 0 0 0 0 0 0 0
19 16 13 11 9 7 4 2 2 2 2 2 2 2 2 1 0 1 1 0 0 0 0 0 0 0 0 0 0 0 0 0 0 0 0 0 0 0 0 0 0 0 0
19 17 15 12 9 6 4 2 1 2 2 2 1 1 1 0 0 0 0 0 0 0 0 0 0 0 0 0 0 0 0 0 0 0 0 0 0 0 0 0 0 0 0
Wind_Speed
3 2 2 1 1 1 1 1 1 1 1 1 2 3 3 4 4 3 3 9 10 10 11 10 10 9 10 10 9 9 9 9 9 9 10 10 10 10 10 10 10 10 10
3 3 2 2 1 1 1 2 1 1 1 1 2 3 3 4 4 3 2 5 9 9 10 10 10 10 10 10 9 9 8 8 8 8 9 9 10 9 9 9 9 9 9
3 3 2 2 1 1 2 1 1 2 2 2 3 3 3 3 4 3 3 2 3 7 9 9 9 8 9 9 9 9 8 8 7 7 8 7 7 8 9 9 10 9 9
3 3 2 1 1 2 2 2 2 2 2 2 2 2 2 2 3 3 3 2 2 2 5 8 7 7 8 8 9 9 8 8 7 6 6 7 7 6 7 8 9 9 9
3 3 2 1 2 2 2 2 2 2 2 2 2 2 2 2 2 3 3 3 2 2 2 4 6 6 6 7 7 7 8 8 8 8 7 7 6 6 6 6 6 7 8
2 3 2 2 2 2 2 2 2 2 2 2 3 3 2 2 2 2 2 2 2 2 2 2 2 2 4 4 5 6 7 7 7 7 8 8 7 6 5 6 5 5 5
3 3 2 2 2 2 2 2 2 2 2 2 3 3 3 2 2 1 1 1 1 2 2 1 1 1 1 1 3 5 6 6 7 6 6 6 6 6 6 6 5 6 6
2 3 3 2 2 2 2 2 2 2 1 1 2 2 1 3 3 2 1 1 1 1 1 2 1 1 1 1 1 3 4 5 5 5 5 5 5 5 6 5 5 5 5
2 2 3 3 2 2 2 2 2 3 1 0 2 3 3 2 0 2 2 1 2 2 1 1 2 1 2 1 1 1 3 3 3 4 3 3 3 3 3 4 3 3 2
1 2 2 3 2 2 2 1 2 2 2 1 0 0 2 4 3 0 2 1 1 1 1 1 1 1 1 1 2 3 3 3 3 3 3 3 3 3 3 4 3 3 2
0 1 1 2 2 2 2 1 2 2 2 2 1 1 1 1 2 3 1 1 1 2 1 1 1 1 1 1 1 3 4 3 3 3 3 3 4 4 4 3 3 2 2
0 0 1 1 2 2 2 2 2 2 2 2 1 1 2 2 2 2 2 1 0 1 2 2 2 2 1 1 2 5 5 4 4 4 4 4 4 4 3 3 2 2 2
0 1 0 1 1 2 2 2 2 1 1 2 1 1 1 2 2 3 3 2 1 0 1 2 2 2 2 2 2 5 6 6 5 5 5 5 5 5 4 4 3 3 3
1 1 1 1 2 2 2 2 1 1 1 1 1 1 1 1 2 3 3 3 2 1 1 1 2 2 2 2 4 6 5 7 6 6 6 6 6 6 6 6 6 6 6
1 1 2 2 2 1 2 2 2 1 2 2 1 1 1 0 1 1 2 3 4 3 1 0 1 2 2 2 4 3 3 8 8 7 7 7 8 8 8 8 8 8 8
1 2 2 2 2 1 1 2 2 2 2 2 2 2 1 1 1 1 2 2 2 4 3 1 1 1 2 3 6 4 4 9 9 8 7 7 8 8 8 8 8 8 9
2 2 2 2 2 2 2 2 2 3 3 2 2 2 2 2 2 2 2 3 3 3 4 1 1 2 3 3 3 3 4 3 4 8 8 8 8 8 8 8 8 9 8
2 2 2 2 2 2 2 3 3 3 3 2 2 3 3 3 3 2 3 3 2 3 5 5 2 2 2 2 2 3 3 3 3 7 8 7 7 7 7 7 7 7 7
2 2 3 2 2 2 2 3 3 3 3 2 3 3 3 4 3 2 3 3 2 3 3 5 3 1 2 2 2 2 3 2 2 4 5 6 6 6 6 6 6 6 6
2 2 3 2 2 2 2 3 3 3 3 3 3 3 3 4 3 3 3 3 4 4 4 4 3 2 1 1 2 2 1 1 1 2 3 3 4 5 4 5 4 5 5
3 3 3 3 2 2 2 3 3 4 4 4 4 4 4 5 5 4 4 4 5 4 4 4 3 2 1 1 1 1 1 1 1 1 1 1 2 1 1 1 2 3 3
2 3 3 3 3 2 4 6 5 4 3 4 3 3 4 4 5 6 6 6 7 6 5 4 3 3 2 2 1 2 2 1 0 1 1 0 1 0 1 1 1 2 2
3 3 3 3 2 2 5 6 7 4 4 3 3 3 3 3 4 4 6 7 5 6 6 5 5 3 3 3 3 2 2 2 2 2 2 0 0 1 1 1 2 3 3
4 3 3 3 3 2 5 6 7 5 4 3 3 3 4 3 4 5 5 5 3 3 2 3 4 3 3 3 3 3 3 2 1 0 2 1 1 1 1 1 3 3 4
4 3 3 4 3 2 5 7 7 4 4 3 3 3 4 4 5 7 6 5 4 3 3 4 3 3 2 3 3 3 2 2 0 1 1 1 1 0 1 2 2 3 4
4 4 3 3 4 3 5 7 8 4 4 3 3 3 5 5 6 6 6 5 4 1 2 4 4 3 2 1 3 3 3 3 1 1 1 1 1 1 0 2 1 1 2
Wind_Direction
144 141 143 145 152 153 163 167 192 201 206 181 165 149 157 145 145 155 172 173 177 178 177 179 181 182 184 184 185 184 188 192 194 195 198 200 202 202 204 208 208 207 206
139 135 130 128 143 158 158 153 158 133 105 107 95 110 137 140 140 142 156 177 178 179 183 183 184 188 190 189 189 192 195 197 198 199 202 206 206 206 206 207 209 208 207
132 134 129 137 158 149 138 125 108 102 96 94 95 101 115 129 140 147 152 147 172 184 182 184 186 190 194 194 195 196 197 198 198 203 200 201 205 209 213 214 217 216 215
135 129 124 138 155 127 116 117 105 93 85 96 102 98 97 108 131 147 145 139 145 170 186 183 186 193 194 198 199 199 200 198 195 196 199 202 207 211 214 217 219 219 218
127 126 128 135 118 103 102 112 103 110 110 104 104 97 98 107 120 130 141 150 157 150 153 176 182 186 197 201 204 206 202 200 200 201 202 204 207 208 213 212 215 217 219
120 120 125 124 109 100 86 92 104 101 116 114 97 83 85 103 104 113 142 147 151 153 150 172 196 201 204 212 211 208 201 205 208 209 209 209 210 209 210 212 212 217 223
127 123 120 118 107 108 115 109 109 102 101 106 95 68 40 56 82 103 115 114 123 143 140 155 166 173 209 199 200 205 208 208 207 204 204 204 207 209 212 215 218 222 227
140 135 129 129 126 116 102 99 106 112 120 111 118 108 51 14 19 46 77 103 102 102 130 149 143 165 178 177 129 177 193 198 190 185 189 195 204 208 209 209 212 215 219
151 142 142 142 139 142 149 150 134 130 147 160 140 140 146 190 308 0 32 66 82 88 106 119 138 156 157 142 153 122 134 140 164 169 169 180 183 179 184 191 178 167 171
143 139 141 141 143 143 152 165 144 139 134 148 281 124 157 157 152 154 354 15 56 61 60 82 120 128 150 145 110 105 123 135 153 166 166 159 147 146 159 156 151 148 152
76 124 136 139 144 140 142 134 120 128 135 148 155 154 106 104 126 148 188 325 17 22 34 63 83 94 117 135 142 116 121 125 130 140 147 147 141 148 149 158 168 163 160
326 331 130 139 141 135 136 144 136 132 139 140 137 138 144 147 164 153 168 181 104 14 36 48 64 68 66 76 117 106 111 119 117 121 121 120 116 120 128 138 143 133 118
237 265 153 144 146 151 147 135 126 127 138 139 156 170 164 174 158 150 147 157 129 48 43 36 37 57 71 53 81 98 105 105 106 100 97 98 97 94 93 98 100 96 95
209 197 138 136 138 135 127 120 110 123 118 132 141 151 150 179 152 156 158 150 136 73 48 46 28 37 51 50 67 74 88 96 99 96 92 88 87 86 84 84 83 77 74
167 142 130 120 108 109 112 116 105 109 104 101 98 103 111 122 142 158 155 155 151 145 116 85 58 28 51 56 66 64 80 93 96 97 95 89 86 84 82 81 80 78 76
133 132 127 121 114 102 106 108 108 104 100 88 93 82 62 58 81 92 124 125 134 140 137 131 111 107 87 84 73 59 69 86 88 91 92 90 88 84 81 80 80 79 79
128 136 139 131 120 104 101 98 102 107 102 89 76 86 69 68 81 79 88 95 100 115 123 110 88 88 79 83 68 59 63 57 71 86 94 92 90 88 85 83 81 80 79
124 124 125 119 116 108 105 107 110 103 103 105 100 95 83 88 82 86 94 101 107 115 132 134 119 97 86 104 90 88 80 73 67 87 92 94 94 93 89 85 82 80 79
126 111 108 113 115 111 109 115 119 113 110 114 118 114 107 101 90 93 95 97 100 103 111 130 130 110 93 102 87 78 77 53 80 95 90 91 97 95 91 89 88 86 86
134 127 123 120 117 112 114 117 110 103 96 96 104 106 106 109 113 113 108 106 108 106 109 119 124 115 104 100 94 94 67 23 60 85 76 82 95 93 94 98 100 99 95
144 138 129 118 109 109 126 126 119 111 103 96 89 90 97 104 107 110 119 126 122 118 119 120 127 123 126 131 160 171 129 85 17 64 72 57 70 50 37 105 123 122 115
134 127 130 128 119 125 122 121 120 111 107 110 105 94 96 88 94 93 100 116 128 135 141 138 141 151 165 168 158 155 143 129 243 273 117 359 107 112 280 263 180 162 159
144 139 142 138 140 139 130 130 127 123 117 118 119 110 103 91 88 88 88 94 98 112 135 149 152 170 176 185 164 159 168 168 192 198 131 209 245 230 257 243 206 196 195
163 168 166 163 158 148 136 137 134 119 112 109 110 117 113 98 98 110 103 90 78 77 98 137 159 180 185 186 181 175 174 148 64 22 127 163 230 231 261 261 244 222 220
170 177 176 171 162 163 151 148 140 123 109 95 91 100 113 106 103 109 108 102 81 49 56 86 113 129 144 154 151 122 115 113 91 279 193 147 206 225 287 273 263 243 231
175 171 169 175 168 166 159 150 142 132 123 113 89 85 99 111 113 112 117 119 111 99 68 67 64 59 78 101 124 146 157 148 155 246 232 150 169 128 287 284 271 272 255